Location: Ailingen
(47.6833°N, 9.5000°E)
Time: 11:26:36
(UTC+00:00)

Meteor 2-1 Rocket - Pass Details

Date: 18 November 2025
Orbit: 822 x 912 km, 81.3° (Epoch: 11 December)

Event Time Altitude Azimuth Distance (km) Brightness Sun altitude
Rises 17:43:04 0° 177° (S) 3,502 7.5 -20.1°
Reaches altitude 10° 17:45:31 10° 174° (S) 2,575 6.7 -20.6°
Maximum altitude 17:51:18 61° 96° (E) 1,032 4.3 -21.5°
Drops below altitude 10° 17:57:10 10° 18° (NNE) 2,611 6.5 -22.5°
Enters shadow 17:57:35 - 17° (NNE) 2,764 6.7 -22.6°
